Temp
-13 -14 -14 -14 -14 -14 -14 -15 -15 -15 -15 -15 -15 -15 -15 -15 -15 -14 -14 -14 -14 -15 -15 -15 -15 -15 -15 -16 -16 -16 -16 -16 -16 -17 -17 -18 -18 -18 -19 -20 -21 -22 -21 -19 -20 -20 -19 -19 -19 -19 -19 -18 -18 -19 -19 -19 -19 -19 -19 -19 -19 -19 -19
-14 -14 -14 -14 -14 -14 -15 -15 -15 -15 -16 -16 -15 -15 -15 -15 -15 -14 -14 -14 -14 -14 -15 -15 -15 -15 -15 -16 -16 -15 -16 -16 -16 -17 -17 -18 -18 -18 -19 -19 -20 -22 -22 -20 -20 -20 -20 -20 -20 -20 -19 -19 -19 -19 -19 -20 -20 -20 -20 -20 -20 -20 -19
-14 -14 -14 -14 -14 -15 -15 -15 -15 -16 -16 -16 -16 -16 -15 -15 -15 -15 -14 -14 -14 -14 -15 -15 -15 -15 -15 -16 -16 -15 -16 -16 -16 -17 -18 -18 -18 -18 -19 -19 -21 -22 -22 -22 -21 -21 -21 -21 -21 -20 -19 -19 -19 -20 -20 -20 -21 -21 -21 -21 -21 -21 -20
-14 -14 -14 -14 -14 -15 -15 -15 -15 -16 -16 -16 -16 -16 -16 -15 -15 -15 -15 -14 -14 -15 -15 -15 -15 -15 -15 -15 -16 -15 -15 -16 -17 -17 -18 -18 -18 -18 -19 -19 -21 -22 -23 -23 -22 -21 -22 -22 -21 -21 -20 -19 -20 -20 -21 -21 -22 -22 -22 -22 -22 -22 -21
-14 -14 -14 -14 -14 -15 -15 -15 -15 -15 -16 -16 -16 -16 -16 -16 -16 -15 -15 -15 -15 -15 -15 -15 -15 -15 -15 -15 -15 -16 -16 -16 -17 -17 -18 -18 -18 -18 -19 -20 -21 -22 -23 -24 -23 -22 -22 -23 -22 -22 -21 -20 -21 -21 -21 -22 -22 -23 -23 -23 -23 -23 -22
-14 -14 -14 -14 -14 -15 -15 -15 -15 -15 -16 -16 -16 -16 -16 -16 -16 -15 -15 -15 -15 -15 -15 -15 -15 -15 -15 -16 -16 -16 -16 -16 -17 -17 -17 -18 -18 -18 -19 -20 -21 -22 -23 -23 -23 -23 -23 -23 -23 -23 -21 -21 -22 -22 -22 -22 -23 -23 -23 -23 -23 -23 -22
-14 -14 -14 -14 -15 -15 -15 -15 -15 -15 -16 -16 -17 -17 -16 -16 -16 -15 -15 -15 -15 -15 -15 -15 -15 -15 -15 -16 -16 -16 -16 -16 -17 -17 -18 -18 -18 -19 -20 -21 -21 -22 -23 -23 -23 -24 -24 -23 -24 -24 -22 -21 -23 -23 -23 -24 -24 -24 -24 -24 -24 -24 -23
-14 -14 -14 -14 -15 -15 -15 -15 -15 -15 -16 -16 -17 -17 -17 -16 -16 -16 -15 -15 -15 -15 -15 -15 -15 -15 -15 -15 -16 -16 -16 -16 -17 -18 -18 -18 -19 -20 -21 -22 -22 -23 -23 -24 -24 -25 -24 -24 -25 -24 -23 -23 -24 -24 -24 -24 -25 -25 -24 -24 -24 -24 -24
-14 -14 -14 -14 -15 -15 -15 -15 -15 -15 -16 -17 -17 -17 -17 -17 -16 -16 -15 -15 -15 -14 -14 -14 -15 -15 -15 -15 -15 -16 -16 -16 -17 -18 -18 -18 -19 -21 -22 -22 -23 -24 -24 -24 -25 -25 -25 -25 -25 -24 -24 -24 -24 -24 -24 -25 -26 -26 -25 -25 -25 -24 -24
-14 -14 -14 -15 -15 -15 -15 -15 -15 -16 -16 -17 -17 -17 -17 -17 -16 -15 -15 -14 -14 -14 -14 -14 -15 -15 -15 -15 -15 -16 -16 -17 -17 -18 -19 -19 -20 -21 -22 -23 -24 -24 -24 -25 -25 -25 -25 -26 -25 -24 -25 -25 -24 -25 -25 -26 -26 -26 -26 -26 -26 -25 -25
-14 -14 -15 -15 -15 -15 -15 -15 -15 -16 -16 -17 -17 -17 -18 -17 -16 -16 -15 -15 -15 -14 -15 -15 -15 -15 -15 -16 -16 -16 -17 -17 -18 -19 -20 -20 -21 -21 -22 -23 -24 -24 -25 -25 -26 -26 -26 -26 -25 -24 -25 -26 -25 -25 -26 -26 -26 -27 -26 -26 -27 -26 -25
-14 -15 -15 -15 -15 -15 -15 -15 -15 -16 -16 -16 -17 -17 -18 -18 -17 -17 -16 -16 -15 -15 -15 -15 -16 -16 -17 -17 -17 -17 -18 -18 -19 -19 -20 -20 -21 -21 -22 -23 -23 -24 -25 -26 -26 -26 -26 -27 -26 -25 -26 -26 -26 -26 -26 -27 -27 -27 -27 -26 -27 -27 -26
-14 -15 -15 -15 -15 -15 -15 -15 -15 -16 -16 -16 -17 -17 -17 -17 -17 -16 -16 -16 -16 -16 -16 -16 -17 -17 -17 -18 -18 -18 -18 -18 -19 -19 -20 -20 -21 -21 -22 -22 -22 -23 -24 -25 -26 -26 -26 -26 -27 -26 -26 -26 -27 -27 -27 -27 -27 -26 -27 -27 -27 -27 -27
-15 -15 -15 -15 -15 -15 -14 -14 -15 -16 -16 -16 -16 -17 -17 -17 -16 -16 -16 -16 -16 -16 -16 -17 -17 -17 -17 -17 -17 -18 -18 -18 -19 -19 -20 -20 -21 -22 -22 -22 -22 -23 -23 -24 -25 -26 -25 -25 -26 -27 -26 -27 -27 -27 -27 -27 -27 -27 -27 -27 -27 -27 -27
-15 -15 -15 -15 -15 -15 -14 -14 -15 -16 -16 -16 -16 -17 -17 -16 -16 -16 -16 -16 -16 -16 -16 -17 -17 -17 -17 -17 -17 -18 -18 -19 -19 -20 -20 -20 -21 -22 -23 -23 -23 -24 -24 -25 -25 -26 -26 -26 -26 -27 -27 -27 -27 -27 -27 -27 -27 -27 -27 -27 -27 -28 -28
-15 -15 -15 -15 -15 -15 -14 -14 -15 -16 -16 -16 -16 -17 -17 -16 -16 -16 -16 -16 -16 -16 -16 -16 -16 -17 -17 -17 -17 -18 -18 -19 -20 -21 -21 -21 -22 -23 -24 -24 -25 -25 -26 -26 -27 -27 -27 -27 -27 -27 -27 -27 -27 -27 -27 -27 -27 -28 -28 -28 -28 -28 -28
-15 -15 -15 -15 -15 -15 -14 -14 -14 -15 -16 -16 -16 -17 -17 -17 -16 -16 -16 -16 -16 -16 -16 -16 -16 -17 -17 -17 -18 -18 -19 -20 -21 -22 -22 -23 -24 -24 -25 -25 -25 -26 -26 -27 -27 -28 -28 -28 -28 -27 -27 -26 -26 -26 -27 -27 -28 -28 -28 -28 -28 -28 -28
-15 -15 -15 -15 -15 -15 -15 -14 -14 -15 -16 -16 -16 -17 -17 -17 -17 -17 -16 -16 -16 -16 -16 -16 -17 -17 -18 -18 -18 -19 -20 -21 -22 -24 -24 -25 -25 -26 -25 -25 -26 -27 -27 -27 -28 -28 -28 -29 -29 -29 -29 -28 -28 -28 -27 -27 -27 -27 -28 -28 -28 -29 -29
-15 -15 -15 -15 -15 -15 -15 -14 -14 -15 -16 -16 -16 -17 -17 -17 -17 -17 -17 -17 -16 -16 -16 -16 -17 -17 -18 -19 -19 -19 -20 -21 -22 -23 -24 -25 -26 -26 -25 -25 -26 -27 -28 -28 -28 -28 -28 -28 -29 -29 -30 -30 -30 -30 -29 -29 -28 -28 -28 -29 -29 -29 -29
-16 -15 -15 -15 -15 -15 -15 -15 -15 -15 -16 -16 -16 -16 -17 -17 -17 -17 -17 -17 -17 -16 -16 -17 -17 -18 -18 -19 -19 -19 -19 -20 -21 -23 -25 -26 -27 -26 -25 -25 -27 -27 -27 -27 -26 -26 -27 -27 -27 -29 -29 -29 -30 -30 -30 -30 -30 -29 -29 -29 -30 -30 -30
-16 -16 -15 -15 -15 -15 -15 -15 -15 -15 -15 -15 -15 -16 -16 -17 -17 -17 -17 -17 -17 -17 -17 -17 -18 -18 -19 -19 -19 -19 -20 -20 -22 -24 -25 -25 -25 -25 -25 -25 -26 -26 -26 -25 -25 -25 -25 -26 -27 -29 -29 -30 -30 -30 -30 -30 -30 -30 -30 -30 -30 -30 -30
-16 -16 -15 -14 -15 -15 -15 -15 -15 -15 -15 -15 -15 -16 -16 -16 -17 -17 -17 -17 -17 -17 -18 -18 -18 -18 -19 -19 -20 -20 -20 -20 -21 -22 -22 -22 -23 -23 -24 -25 -25 -25 -25 -24 -25 -25 -25 -26 -27 -29 -30 -30 -31 -31 -31 -31 -31 -30 -30 -30 -30 -30 -30
-16 -16 -15 -14 -14 -14 -15 -15 -15 -15 -15 -15 -15 -16 -16 -16 -17 -17 -18 -18 -18 -18 -18 -18 -19 -19 -19 -20 -20 -19 -19 -20 -20 -21 -21 -22 -23 -23 -24 -25 -25 -25 -25 -25 -25 -26 -26 -27 -28 -29 -30 -31 -31 -31 -31 -31 -31 -31 -31 -31 -31 -31 -31
-16 -16 -16 -15 -14 -14 -15 -15 -15 -16 -16 -16 -16 -16 -17 -17 -17 -18 -18 -18 -18 -19 -19 -19 -19 -19 -19 -19 -19 -19 -19 -20 -20 -21 -22 -22 -23 -23 -24 -25 -25 -26 -27 -27 -27 -27 -28 -28 -29 -30 -30 -31 -31 -32 -32 -32 -32 -31 -31 -31 -31 -31 -31
-16 -16 -16 -15 -15 -15 -15 -15 -16 -16 -16 -16 -17 -17 -17 -17 -18 -18 -19 -19 -19 -19 -19 -19 -19 -19 -19 -18 -19 -19 -20 -20 -20 -21 -21 -22 -22 -23 -24 -25 -26 -27 -28 -28 -27 -28 -29 -29 -30 -30 -31 -31 -32 -32 -32 -32 -32 -32 -32 -32 -32 -32 -32
-17 -16 -16 -15 -15 -15 -15 -15 -16 -16 -16 -17 -17 -17 -18 -18 -18 -19 -19 -19 -19 -19 -19 -19 -18 -18 -18 -18 -18 -19 -20 -20 -20 -20 -21 -21 -22 -24 -25 -26 -26 -27 -27 -28 -28 -28 -29 -29 -30 -31 -31 -31 -32 -32 -32 -32 -32 -32 -32 -33 -33 -33 -33
-17 -16 -16 -16 -16 -16 -16 -15 -15 -16 -16 -17 -17 -18 -18 -19 -19 -19 -19 -18 -18 -18 -18 -18 -17 -17 -18 -18 -19 -19 -19 -20 -20 -20 -20 -21 -22 -24 -25 -26 -27 -27 -28 -28 -28 -29 -29 -30 -30 -31 -31 -31 -32 -32 -32 -32 -33 -33 -33 -33 -33 -33 -33
-17 -16 -16 -17 -16 -16 -16 -15 -15 -16 -17 -18 -18 -18 -18 -18 -18 -18 -18 -18 -18 -18 -18 -17 -17 -17 -17 -18 -18 -18 -19 -19 -19 -20 -20 -21 -22 -24 -25 -26 -27 -27 -27 -28 -28 -29 -29 -30 -30 -31 -31 -32 -32 -32 -32 -33 -33 -33 -33 -33 -34 -34 -34
-16 -16 -17 -17 -16 -16 -17 -16 -16 -17 -18 -18 -18 -19 -19 -18 -18 -18 -18 -19 -19 -19 -18 -17 -17 -17 -18 -18 -18 -18 -18 -19 -19 -20 -20 -21 -23 -24 -25 -25 -26 -27 -27 -28 -29 -29 -29 -30 -30 -31 -31 -32 -32 -32 -33 -33 -33 -33 -33 -34 -34 -34 -34
-16 -16 -17 -17 -16 -16 -17 -17 -17 -17 -18 -18 -18 -18 -18 -18 -19 -19 -19 -20 -20 -20 -19 -18 -18 -18 -18 -19 -19 -19 -19 -19 -20 -20 -21 -22 -23 -23 -24 -25 -26 -26 -27 -28 -29 -29 -29 -30 -30 -31 -31 -32 -32 -32 -33 -33 -33 -33 -34 -34 -34 -34 -34
-16 -16 -16 -17 -17 -16 -17 -17 -17 -17 -17 -17 -17 -18 -18 -19 -19 -20 -20 -20 -20 -20 -19 -19 -19 -18 -18 -19 -19 -19 -19 -20 -20 -21 -21 -22 -22 -23 -24 -25 -25 -26 -27 -28 -28 -29 -29 -30 -30 -31 -31 -32 -32 -32 -33 -33 -33 -34 -34 -34 -34 -34 -34
-15 -16 -16 -17 -17 -17 -17 -17 -17 -18 -17 -17 -18 -18 -19 -19 -20 -20 -20 -20 -21 -20 -19 -19 -19 -18 -18 -19 -19 -19 -19 -20 -21 -21 -22 -23 -22 -22 -23 -24 -25 -26 -27 -28 -28 -29 -29 -30 -30 -31 -31 -32 -32 -33 -33 -33 -33 -34 -34 -34 -34 -34 -34
-15 -16 -16 -16 -17 -17 -17 -17 -17 -17 -18 -18 -19 -19 -19 -19 -19 -19 -20 -20 -21 -20 -19 -19 -19 -18 -18 -19 -19 -19 -20 -20 -21 -21 -22 -23 -23 -23 -23 -24 -25 -26 -27 -27 -28 -29 -29 -29 -30 -31 -31 -32 -32 -33 -33 -33 -33 -34 -34 -34 -34 -34 -35
-15 -16 -16 -16 -16 -17 -17 -17 -17 -18 -18 -19 -19 -19 -20 -19 -19 -18 -19 -20 -20 -19 -18 -18 -19 -18 -18 -19 -19 -19 -20 -20 -21 -22 -22 -22 -23 -23 -23 -24 -26 -27 -27 -27 -28 -29 -29 -29 -30 -30 -31 -32 -32 -33 -33 -33 -33 -34 -34 -34 -34 -34 -35
-15 -15 -16 -16 -16 -17 -17 -17 -18 -18 -18 -19 -19 -19 -20 -19 -18 -18 -18 -19 -19 -19 -18 -18 -18 -18 -18 -19 -19 -20 -20 -21 -21 -21 -22 -23 -23 -23 -24 -25 -26 -26 -27 -28 -28 -28 -29 -29 -30 -30 -31 -32 -32 -33 -33 -33 -33 -34 -34 -34 -34 -34 -35
-15 -15 -15 -16 -16 -17 -18 -18 -18 -18 -18 -18 -19 -20 -20 -20 -19 -18 -18 -18 -18 -18 -18 -18 -18 -18 -19 -19 -19 -20 -20 -21 -21 -21 -22 -23 -23 -24 -24 -25 -26 -26 -27 -28 -28 -28 -29 -30 -30 -31 -31 -32 -32 -33 -33 -33 -33 -34 -34 -34 -34 -35 -35
Height
1548 1547 1546 1545 1543 1541 1540 1538 1536 1534 1533 1532 1531 1530 1529 1527 1526 1525 1524 1523 1522 1520 1518 1516 1515 1514 1512 1510 1508 1507 1505 1503 1502 1500 1497 1497 1494 1491 1491 1488 1485 1477 1461 1456 1461 1460 1456 1456 1454 1450 1450 1448 1443 1441 1440 1437 1435 1433 1430 1426 1423 1420 1419
1546 1545 1543 1542 1540 1538 1536 1534 1533 1531 1530 1529 1528 1527 1526 1525 1524 1522 1521 1520 1518 1517 1515 1513 1512 1511 1509 1507 1505 1504 1502 1499 1498 1497 1493 1493 1491 1487 1486 1485 1480 1476 1464 1453 1453 1456 1453 1452 1451 1447 1445 1445 1440 1436 1435 1432 1430 1429 1426 1424 1421 1417 1415
1543 1541 1540 1538 1537 1535 1533 1532 1530 1529 1527 1526 1525 1524 1524 1523 1521 1519 1518 1516 1515 1513 1512 1509 1508 1508 1506 1504 1501 1500 1499 1496 1494 1493 1490 1488 1487 1484 1481 1481 1477 1472 1466 1455 1448 1450 1449 1447 1446 1444 1442 1441 1438 1433 1431 1427 1425 1424 1422 1420 1418 1415 1412
1539 1538 1536 1535 1534 1532 1531 1529 1528 1527 1525 1524 1523 1521 1520 1519 1518 1516 1514 1512 1511 1509 1508 1506 1505 1504 1502 1500 1498 1496 1495 1493 1491 1489 1486 1484 1483 1481 1477 1476 1474 1469 1464 1456 1446 1444 1445 1444 1442 1439 1438 1437 1433 1430 1428 1424 1421 1420 1418 1416 1415 1412 1410
1536 1535 1534 1532 1531 1530 1528 1527 1525 1524 1523 1522 1520 1518 1517 1516 1514 1513 1511 1509 1508 1506 1504 1503 1501 1500 1499 1496 1493 1492 1491 1489 1488 1485 1483 1481 1478 1477 1473 1471 1469 1465 1462 1456 1446 1440 1440 1440 1438 1434 1433 1433 1429 1425 1423 1420 1418 1417 1415 1412 1411 1409 1407
1533 1532 1531 1530 1529 1527 1526 1524 1523 1521 1520 1519 1517 1515 1514 1512 1511 1509 1507 1506 1504 1503 1501 1499 1498 1496 1495 1493 1490 1488 1487 1485 1484 1481 1479 1477 1475 1472 1470 1466 1464 1461 1458 1453 1446 1440 1436 1435 1434 1431 1428 1429 1428 1423 1418 1415 1413 1412 1412 1409 1406 1404 1403
1530 1529 1528 1527 1526 1525 1523 1521 1520 1518 1517 1515 1513 1511 1510 1509 1507 1505 1504 1502 1501 1500 1498 1496 1495 1493 1491 1490 1487 1485 1483 1481 1479 1477 1475 1473 1470 1467 1465 1461 1459 1457 1453 1449 1443 1439 1435 1431 1430 1429 1425 1424 1424 1421 1417 1414 1409 1406 1406 1406 1403 1400 1397
1528 1527 1526 1524 1523 1522 1520 1518 1517 1515 1513 1511 1509 1507 1506 1504 1503 1501 1499 1498 1497 1496 1495 1492 1491 1490 1488 1486 1484 1482 1480 1477 1474 1472 1469 1467 1465 1462 1459 1456 1454 1451 1449 1445 1440 1436 1433 1429 1426 1425 1422 1420 1420 1417 1414 1414 1410 1403 1401 1400 1398 1396 1394
1524 1523 1522 1521 1520 1519 1517 1515 1514 1512 1510 1508 1505 1504 1502 1501 1500 1497 1495 1494 1493 1492 1491 1489 1487 1485 1484 1482 1479 1477 1475 1472 1470 1466 1463 1461 1460 1458 1455 1452 1449 1447 1444 1440 1436 1432 1430 1426 1422 1421 1419 1417 1416 1414 1411 1410 1408 1403 1399 1396 1393 1391 1391
1521 1520 1519 1518 1517 1516 1514 1512 1510 1509 1507 1505 1502 1499 1497 1496 1495 1494 1491 1489 1488 1487 1485 1484 1482 1480 1478 1476 1474 1473 1470 1468 1465 1462 1459 1457 1456 1454 1451 1448 1445 1443 1440 1436 1432 1428 1427 1422 1416 1416 1417 1414 1412 1412 1409 1406 1405 1400 1396 1394 1388 1384 1386
1518 1517 1516 1514 1513 1512 1511 1509 1507 1506 1504 1502 1499 1496 1493 1491 1489 1488 1487 1485 1483 1481 1480 1478 1476 1475 1473 1471 1470 1468 1466 1463 1461 1458 1456 1454 1452 1450 1448 1446 1442 1438 1436 1434 1429 1424 1423 1419 1412 1410 1413 1411 1408 1408 1406 1403 1402 1398 1393 1391 1386 1380 1380
1515 1514 1513 1511 1509 1508 1507 1506 1504 1503 1501 1499 1497 1495 1491 1488 1486 1484 1482 1481 1479 1477 1475 1473 1471 1469 1468 1466 1464 1462 1460 1458 1455 1454 1452 1449 1448 1446 1445 1443 1440 1435 1433 1431 1425 1419 1417 1416 1410 1406 1407 1408 1406 1404 1402 1399 1398 1396 1392 1388 1385 1379 1376
1512 1511 1509 1508 1506 1505 1504 1503 1501 1499 1498 1495 1494 1492 1489 1486 1484 1481 1479 1477 1475 1473 1471 1469 1466 1464 1462 1461 1460 1457 1455 1453 1450 1448 1446 1443 1441 1440 1438 1437 1436 1433 1430 1427 1423 1416 1411 1411 1409 1403 1401 1404 1404 1400 1398 1395 1393 1392 1389 1385 1382 1378 1375
1508 1507 1506 1504 1502 1501 1500 1500 1498 1496 1494 1492 1490 1488 1485 1483 1480 1477 1475 1474 1472 1470 1467 1465 1462 1459 1457 1456 1455 1453 1451 1448 1445 1442 1439 1437 1434 1432 1431 1429 1428 1427 1425 1422 1419 1413 1406 1406 1407 1402 1397 1400 1401 1397 1395 1392 1389 1387 1385 1381 1377 1374 1372
1505 1504 1503 1501 1499 1497 1496 1496 1494 1492 1490 1488 1486 1483 1481 1479 1476 1473 1471 1470 1468 1466 1463 1461 1459 1455 1453 1451 1449 1448 1446 1443 1439 1436 1432 1430 1427 1425 1423 1421 1420 1419 1418 1415 1412 1408 1402 1400 1401 1398 1395 1395 1396 1393 1391 1389 1386 1383 1381 1376 1372 1369 1368
1501 1500 1498 1497 1495 1493 1492 1492 1490 1488 1486 1484 1481 1479 1476 1474 1471 1468 1466 1465 1464 1462 1459 1457 1454 1451 1449 1446 1444 1443 1441 1438 1434 1430 1426 1423 1421 1419 1416 1414 1413 1412 1411 1408 1406 1402 1399 1396 1395 1395 1392 1391 1391 1390 1388 1386 1382 1379 1378 1373 1367 1363 1363
1498 1496 1494 1493 1492 1490 1488 1488 1487 1484 1482 1481 1478 1474 1471 1468 1466 1463 1461 1460 1459 1457 1454 1452 1450 1447 1444 1441 1439 1437 1435 1433 1429 1425 1421 1418 1415 1413 1410 1408 1407 1406 1404 1403 1401 1398 1396 1394 1393 1392 1390 1389 1389 1388 1388 1384 1378 1376 1375 1371 1365 1359 1358
1493 1493 1491 1489 1488 1486 1483 1483 1483 1480 1478 1477 1474 1470 1466 1463 1460 1458 1455 1454 1453 1451 1449 1447 1445 1443 1439 1435 1433 1431 1429 1427 1425 1421 1417 1414 1411 1408 1405 1403 1402 1400 1397 1395 1393 1391 1389 1387 1385 1384 1382 1381 1381 1382 1383 1380 1375 1373 1372 1367 1361 1358 1354
1489 1488 1488 1485 1483 1482 1479 1478 1478 1477 1474 1473 1471 1467 1463 1459 1455 1452 1450 1448 1446 1445 1443 1441 1439 1437 1434 1431 1428 1426 1424 1423 1421 1417 1414 1411 1407 1403 1400 1399 1398 1395 1392 1389 1386 1384 1382 1380 1379 1378 1376 1375 1374 1374 1375 1374 1371 1370 1368 1362 1357 1356 1353
1485 1483 1483 1482 1479 1477 1476 1474 1473 1473 1471 1469 1466 1463 1459 1455 1451 1448 1445 1442 1440 1438 1436 1435 1433 1431 1428 1426 1423 1422 1420 1418 1417 1413 1410 1408 1404 1400 1397 1396 1394 1391 1388 1385 1381 1379 1377 1374 1373 1372 1371 1369 1369 1368 1368 1367 1366 1365 1363 1359 1354 1353 1351
1481 1479 1478 1477 1475 1473 1473 1471 1469 1468 1467 1464 1462 1459 1455 1451 1447 1444 1440 1437 1435 1433 1430 1429 1427 1425 1423 1421 1419 1417 1415 1413 1412 1410 1406 1404 1401 1398 1395 1393 1389 1386 1384 1381 1377 1374 1371 1368 1367 1366 1365 1364 1363 1362 1362 1362 1361 1359 1359 1356 1353 1350 1347
1477 1475 1473 1473 1471 1469 1469 1467 1464 1463 1462 1459 1456 1454 1450 1447 1443 1440 1436 1432 1429 1427 1425 1423 1421 1419 1418 1416 1414 1412 1411 1409 1407 1405 1403 1400 1398 1395 1392 1389 1385 1382 1379 1376 1373 1370 1367 1364 1362 1361 1360 1359 1358 1357 1357 1356 1356 1355 1353 1352 1350 1347 1344
1473 1471 1468 1467 1466 1465 1464 1462 1460 1457 1455 1453 1451 1448 1445 1442 1439 1436 1432 1427 1424 1422 1420 1418 1416 1414 1413 1411 1409 1408 1406 1404 1402 1400 1398 1396 1393 1391 1388 1385 1381 1378 1375 1372 1369 1366 1363 1361 1359 1357 1356 1355 1354 1353 1353 1352 1351 1350 1349 1347 1345 1344 1341
1469 1467 1464 1462 1461 1461 1459 1457 1454 1452 1450 1448 1445 1442 1439 1436 1433 1430 1427 1423 1420 1417 1415 1413 1411 1410 1408 1407 1405 1403 1402 1400 1398 1396 1393 1391 1389 1386 1384 1381 1377 1375 1372 1369 1366 1363 1360 1358 1356 1355 1353 1351 1351 1349 1349 1348 1347 1346 1345 1343 1340 1339 1337
1465 1463 1460 1458 1456 1455 1454 1452 1449 1447 1445 1443 1440 1436 1433 1430 1428 1425 1422 1419 1416 1414 1412 1410 1408 1406 1405 1403 1401 1399 1397 1395 1394 1392 1389 1387 1384 1382 1379 1377 1374 1372 1369 1366 1362 1360 1357 1354 1353 1352 1350 1349 1348 1346 1345 1344 1342 1341 1339 1338 1335 1332 1331
1461 1459 1457 1454 1452 1450 1448 1447 1445 1443 1440 1438 1434 1431 1428 1424 1422 1420 1418 1415 1413 1411 1409 1407 1405 1403 1401 1399 1398 1396 1393 1391 1389 1387 1385 1382 1380 1378 1375 1373 1371 1369 1366 1362 1359 1357 1354 1352 1350 1349 1347 1346 1344 1343 1341 1340 1338 1336 1334 1332 1330 1326 1324
1458 1456 1453 1450 1447 1445 1443 1442 1440 1438 1436 1433 1429 1425 1422 1419 1417 1415 1413 1412 1410 1408 1405 1403 1401 1399 1397 1396 1394 1392 1390 1387 1385 1383 1380 1378 1376 1374 1372 1370 1368 1365 1363 1360 1357 1354 1351 1349 1347 1345 1344 1343 1341 1339 1338 1337 1335 1332 1330 1328 1327 1323 1319
1454 1452 1450 1446 1443 1441 1438 1437 1436 1433 1430 1427 1423 1420 1417 1415 1413 1411 1409 1407 1405 1403 1400 1398 1397 1396 1394 1392 1390 1388 1386 1383 1381 1378 1376 1374 1372 1370 1368 1367 1365 1362 1360 1358 1355 1352 1349 1347 1345 1342 1340 1339 1337 1336 1335 1334 1333 1330 1327 1325 1324 1320 1316
1451 1449 1446 1443 1440 1437 1433 1430 1430 1428 1425 1422 1419 1416 1413 1411 1409 1407 1405 1403 1401 1398 1396 1394 1393 1392 1390 1388 1386 1383 1381 1379 1377 1375 1372 1371 1369 1367 1365 1364 1362 1359 1357 1355 1352 1349 1347 1344 1342 1339 1337 1336 1334 1332 1331 1331 1329 1327 1324 1323 1321 1317 1314
1447 1445 1443 1439 1437 1434 1430 1425 1423 1422 1420 1417 1415 1413 1410 1408 1405 1403 1401 1400 1398 1395 1392 1390 1389 1387 1386 1384 1381 1379 1377 1375 1373 1370 1368 1366 1365 1363 1361 1360 1358 1355 1353 1351 1349 1346 1344 1341 1339 1336 1334 1333 1330 1328 1327 1327 1326 1324 1322 1320 1317 1314 1311
1444 1442 1440 1436 1432 1429 1426 1422 1419 1417 1416 1414 1412 1410 1407 1405 1402 1400 1398 1396 1394 1391 1389 1387 1385 1383 1382 1380 1378 1375 1374 1371 1369 1366 1364 1362 1361 1360 1358 1356 1354 1352 1350 1347 1345 1343 1340 1338 1336 1333 1331 1329 1327 1325 1323 1322 1322 1320 1319 1317 1314 1311 1308
1440 1438 1436 1432 1428 1423 1420 1418 1416 1414 1412 1410 1408 1406 1404 1401 1399 1396 1395 1393 1390 1387 1385 1383 1381 1379 1378 1377 1375 1372 1370 1367 1365 1362 1361 1359 1357 1355 1354 1352 1350 1348 1346 1343 1341 1339 1337 1335 1333 1330 1328 1326 1324 1322 1320 1319 1318 1317 1315 1313 1311 1309 1306
1436 1434 1430 1427 1424 1420 1417 1414 1412 1410 1408 1406 1404 1402 1400 1398 1396 1393 1391 1390 1387 1384 1382 1380 1378 1376 1375 1373 1371 1369 1366 1364 1361 1359 1358 1356 1354 1352 1350 1348 1346 1344 1342 1340 1337 1335 1333 1331 1329 1327 1324 1322 1320 1319 1317 1315 1314 1313 1312 1310 1308 1306 1303
1432 1429 1425 1422 1420 1417 1414 1411 1409 1407 1405 1403 1401 1399 1396 1394 1392 1390 1388 1386 1383 1381 1379 1377 1375 1373 1371 1369 1367 1365 1363 1360 1358 1356 1354 1352 1350 1348 1346 1344 1343 1340 1338 1336 1334 1331 1329 1327 1325 1323 1321 1319 1317 1315 1314 1312 1310 1310 1308 1307 1305 1303 1301
1425 1423 1420 1418 1415 1413 1411 1408 1406 1404 1402 1399 1397 1394 1392 1389 1386 1385 1384 1382 1380 1378 1376 1374 1372 1369 1368 1366 1363 1361 1359 1357 1355 1353 1351 1349 1346 1344 1342 1340 1338 1336 1334 1332 1330 1327 1325 1323 1321 1320 1318 1316 1313 1312 1310 1308 1307 1306 1305 1304 1302 1300 1298
1417 1416 1415 1413 1411 1407 1405 1403 1401 1398 1396 1394 1392 1389 1387 1384 1382 1380 1379 1378 1376 1374 1372 1370 1368 1366 1364 1362 1360 1357 1355 1353 1351 1349 1347 1345 1343 1340 1338 1336 1334 1332 1330 1328 1326 1323 1321 1319 1317 1316 1314 1312 1310 1308 1307 1305 1304 1303 1301 1300 1299 1297 1295
Wind_Speed
16 17 18 19 21 22 23 23 23 24 24 24 23 23 23 24 24 24 24 25 25 25 27 28 27 27 28 28 30 29 29 30 30 31 32 31 34 34 33 34 34 40 52 56 48 48 51 50 49 50 48 48 49 48 47 45 44 43 43 43 42 42 40
16 18 19 20 22 23 24 24 24 25 25 25 25 25 24 25 25 26 26 26 27 27 28 29 29 29 29 30 31 30 30 31 31 31 34 33 33 36 35 34 35 38 47 55 53 50 51 50 49 50 50 48 49 50 49 47 45 43 43 42 42 42 41
18 19 20 22 23 24 25 26 26 26 26 26 27 26 25 26 26 27 28 28 29 29 30 31 31 30 31 31 32 32 31 32 33 33 34 35 34 35 36 34 35 37 43 51 55 52 51 51 50 51 50 49 49 50 49 48 47 44 43 42 41 41 42
19 20 22 23 24 25 26 26 26 26 26 26 27 27 27 27 27 28 29 30 30 32 32 33 33 32 33 34 34 34 33 33 33 34 35 36 35 35 37 36 35 37 41 47 54 55 51 51 52 52 51 50 50 50 48 48 47 45 43 41 39 40 42
20 21 22 24 25 26 26 27 27 27 27 26 27 28 28 28 29 29 30 31 32 33 34 35 35 34 34 36 36 36 35 35 34 35 35 36 36 36 36 36 36 38 41 45 52 56 54 51 51 53 52 50 49 50 49 48 48 45 43 42 40 41 43
21 22 23 25 26 27 27 27 28 28 27 27 27 28 28 29 30 30 31 32 33 34 35 35 36 36 36 36 37 37 37 37 36 36 36 36 36 36 36 37 38 40 42 46 50 53 54 53 51 52 53 51 47 48 50 50 49 45 42 42 44 45 45
22 23 24 26 26 27 28 28 28 28 27 27 28 28 29 29 30 32 33 34 34 35 36 36 36 37 37 37 37 38 38 38 38 37 37 37 37 37 38 39 40 41 44 47 50 51 52 53 51 50 53 52 47 47 48 46 46 47 46 45 45 46 46
23 24 25 27 28 28 28 28 28 28 27 28 29 29 30 31 31 33 34 35 36 36 36 37 37 37 37 37 38 38 39 40 40 40 40 40 40 40 40 41 42 43 45 48 49 50 51 52 51 51 53 51 47 47 48 44 43 47 49 48 46 46 46
25 26 27 28 29 29 29 29 28 27 28 28 29 30 30 31 32 34 35 36 36 37 37 37 38 38 38 38 39 40 41 41 42 42 44 43 42 42 43 44 44 45 47 49 50 50 51 51 52 52 51 51 48 47 48 46 43 46 48 48 48 48 45
26 27 28 29 30 29 28 28 28 27 27 28 30 31 32 33 33 35 37 38 38 39 39 39 39 40 40 40 41 41 42 42 43 43 44 44 43 43 43 45 46 46 48 49 51 51 50 51 54 53 50 50 50 48 47 46 44 46 47 46 49 50 45
27 28 29 30 30 29 28 28 27 27 27 27 29 31 32 34 36 37 38 39 40 41 41 41 41 42 42 42 42 42 42 43 43 43 43 43 43 43 43 44 46 48 49 49 51 52 50 50 55 56 51 50 51 49 47 46 44 45 47 46 47 48 46
28 29 30 31 30 29 27 27 27 27 27 27 27 28 31 33 36 37 39 40 40 41 42 42 43 43 43 43 43 43 43 44 44 43 43 43 43 43 43 43 45 48 49 49 51 53 52 51 54 56 53 49 50 49 47 47 46 45 45 45 44 45 45
29 30 30 30 30 29 27 26 26 26 26 27 27 28 30 33 35 37 39 40 40 41 42 43 43 44 44 43 43 44 44 44 44 44 44 44 44 44 44 44 44 45 46 47 49 52 53 51 51 54 54 50 48 49 48 47 47 43 42 43 43 44 45
30 30 30 29 29 28 27 26 26 26 26 27 28 29 31 34 36 38 39 40 40 41 42 42 43 44 45 44 44 44 44 44 44 44 44 45 45 45 45 45 44 44 43 44 46 49 52 51 48 50 51 47 43 44 44 44 44 42 41 43 44 45 46
30 30 29 29 29 29 27 26 26 27 27 28 30 31 32 35 37 39 40 41 41 41 42 42 43 44 45 45 45 44 43 44 43 44 44 45 45 45 45 45 45 44 43 44 45 47 49 49 46 46 46 43 40 41 41 41 43 43 43 45 48 48 46
30 30 29 28 29 30 28 26 27 28 28 29 31 32 34 37 39 41 42 42 41 41 42 43 43 45 45 45 45 44 42 42 42 43 44 45 44 44 45 45 45 43 43 43 43 43 44 44 44 44 43 43 42 41 40 40 42 43 42 45 48 48 44
30 29 29 29 28 30 30 27 27 29 30 30 32 34 36 38 40 42 42 42 42 42 43 44 44 44 45 45 45 43 41 40 40 40 42 43 43 44 44 45 44 43 43 42 40 40 40 40 40 40 40 40 39 37 35 37 41 41 40 42 45 46 45
30 29 28 29 29 30 31 30 28 30 32 31 32 34 37 39 41 42 43 43 43 44 44 45 44 44 44 44 44 42 41 38 37 37 38 39 40 42 43 43 42 42 42 42 41 41 41 40 40 39 38 38 36 34 32 34 40 41 40 43 46 47 48
31 29 28 29 30 31 32 32 31 31 32 32 32 34 37 39 41 42 44 44 45 46 46 45 45 43 42 43 42 41 39 36 34 34 34 35 37 41 42 42 41 41 42 43 44 44 43 43 42 40 39 39 38 36 33 33 37 39 40 44 47 45 44
31 31 29 29 31 32 33 34 33 32 32 32 33 34 36 39 41 43 45 45 46 47 47 45 44 42 41 40 39 37 36 34 32 31 31 32 35 39 41 41 41 42 42 43 44 44 44 44 43 40 39 38 38 37 35 35 36 37 38 41 44 43 41
30 31 31 30 32 33 32 33 34 33 33 33 34 35 37 39 42 43 45 46 47 47 46 44 42 40 39 37 36 35 34 33 30 29 30 32 34 36 38 38 40 40 39 39 40 41 41 41 41 39 37 36 35 34 33 33 34 35 35 37 39 41 41
30 32 32 32 32 33 33 33 35 35 35 35 36 37 38 40 42 43 44 46 47 45 43 42 40 39 37 36 35 34 33 31 29 29 30 31 32 32 33 33 35 36 35 35 36 37 38 38 37 37 35 34 33 32 30 29 29 30 33 34 36 37 38
30 32 34 34 34 34 34 34 35 36 37 37 38 40 41 42 43 43 44 45 44 42 41 40 39 37 36 35 34 33 31 30 30 30 30 29 28 28 28 28 30 31 32 33 33 34 35 36 35 34 34 32 31 30 29 28 27 28 30 33 34 34 35
32 33 35 36 36 35 35 35 37 37 38 39 40 42 42 43 43 43 42 42 41 41 40 39 38 37 36 35 34 32 31 30 30 29 29 27 26 25 25 27 28 29 30 32 33 34 35 35 34 33 33 31 30 29 28 28 28 29 30 33 35 37 38
32 33 35 36 37 37 36 36 38 39 39 40 41 42 43 43 42 41 40 40 40 39 38 37 36 35 34 33 32 31 31 30 29 28 26 25 25 25 26 27 28 29 30 32 34 34 35 35 34 32 32 31 30 30 29 29 30 31 32 34 36 38 39
32 34 35 36 37 38 38 38 39 40 40 40 41 42 42 41 40 39 38 37 37 37 35 34 33 33 33 32 31 30 30 30 28 26 25 24 24 25 26 27 28 29 31 32 33 34 35 35 35 33 32 32 31 31 31 30 31 33 34 33 34 36 37
33 34 35 37 38 39 40 40 40 40 40 40 41 40 40 39 38 37 36 36 35 34 33 32 32 32 31 30 29 29 28 28 26 25 24 24 24 25 26 27 28 29 31 32 33 33 34 35 34 34 33 32 32 32 31 31 31 32 33 32 32 35 37
33 33 34 36 39 40 41 42 41 40 39 39 38 38 37 37 36 35 35 35 34 33 32 32 31 30 30 29 29 28 27 26 25 25 24 24 24 25 26 26 27 28 29 30 30 31 33 33 34 34 34 33 33 33 32 31 31 31 31 31 31 34 37
32 33 34 36 38 40 42 43 41 39 37 36 35 35 35 35 35 35 34 33 32 32 32 32 31 30 29 29 28 27 26 25 25 24 24 24 24 25 26 26 27 28 28 28 28 30 31 32 33 33 34 34 34 34 33 32 31 30 30 30 30 33 36
32 33 34 37 39 39 41 43 41 37 35 33 33 33 33 34 34 33 32 31 31 31 32 32 31 30 29 29 29 27 26 25 25 24 25 24 24 25 26 26 27 27 28 28 28 29 30 31 32 33 33 34 35 35 34 32 31 30 30 30 31 33 35
32 33 34 37 39 40 40 40 38 35 34 33 32 32 32 32 32 31 31 30 30 31 32 32 32 31 30 29 28 27 25 25 25 25 25 26 26 26 26 27 27 27 27 28 29 29 30 30 31 32 33 33 33 34 33 32 32 31 31 31 32 33 34
33 34 35 36 38 39 39 37 34 33 32 32 31 30 30 29 29 30 29 28 29 31 31 31 32 31 30 29 27 26 25 25 25 25 26 26 27 27 27 27 28 27 27 29 29 30 30 31 31 31 32 32 32 32 33 33 32 32 32 32 32 32 33
33 35 36 36 37 37 35 33 32 32 32 31 29 28 27 27 27 27 27 26 27 29 30 31 31 31 30 28 27 25 24 25 25 26 26 27 28 28 28 28 28 28 28 29 30 30 31 31 31 31 32 32 31 32 32 33 33 32 32 32 32 32 33
33 34 36 37 36 34 31 30 30 31 30 28 27 25 25 25 25 24 24 24 26 28 29 30 30 30 29 28 26 25 25 25 25 26 27 28 29 29 29 29 29 29 30 30 30 31 32 31 31 31 32 32 32 32 32 33 33 33 32 32 32 33 33
35 35 36 36 35 31 29 28 29 29 28 27 25 24 24 25 25 24 23 23 25 26 28 28 29 29 28 27 27 26 25 26 26 27 28 29 29 30 30 31 31 31 31 31 31 32 33 32 32 32 31 32 33 33 33 33 33 33 33 33 33 33 33
39 38 37 36 33 30 29 29 30 30 29 27 26 25 25 26 27 26 25 25 25 26 27 27 28 29 28 28 27 27 26 27 27 28 29 29 30 31 31 32 32 32 32 32 33 33 33 33 33 33 32 33 34 34 34 34 34 33 33 33 32 32 32
Wind_Direction
308 314 318 323 324 325 325 324 323 322 320 320 320 320 319 317 316 316 316 315 314 314 313 313 314 315 316 314 314 316 316 315 315 313 310 307 305 303 300 299 293 288 295 302 304 306 309 313 315 316 319 322 322 322 324 324 325 327 328 328 328 327 328
305 311 316 322 325 326 326 324 322 320 318 318 318 317 317 315 314 314 314 314 314 313 312 312 313 315 316 314 313 315 316 315 314 312 309 307 304 302 301 299 297 293 295 300 304 306 308 311 313 313 317 320 320 320 322 322 324 326 327 327 326 326 326
304 310 317 323 326 326 325 323 320 318 316 316 315 314 314 313 313 313 314 314 314 313 312 312 313 315 315 313 313 315 316 315 313 311 308 306 304 302 302 301 298 297 296 298 303 305 306 309 310 311 315 318 319 319 320 320 321 323 325 325 324 323 324
305 311 318 323 325 324 323 320 317 315 314 314 312 312 312 312 312 312 313 313 313 313 312 311 313 315 315 314 314 316 316 314 312 310 306 305 304 303 302 302 299 298 297 297 300 303 304 306 308 310 313 317 318 317 318 318 318 320 322 322 322 320 320
306 311 316 320 322 321 320 317 314 312 312 312 310 310 310 310 310 311 312 311 311 311 311 311 313 314 315 314 314 315 315 314 311 308 305 305 305 304 303 302 300 298 298 297 298 302 304 305 307 308 311 314 315 315 315 315 315 317 319 319 317 314 315
306 310 314 317 318 318 317 314 312 311 311 311 309 308 309 309 309 310 310 309 310 310 310 311 312 314 314 313 314 314 313 312 310 306 305 306 306 306 304 301 300 300 300 298 298 300 302 303 304 305 309 312 312 311 312 312 313 314 315 315 313 312 314
306 309 312 314 315 315 314 313 311 311 311 310 309 308 307 308 309 309 308 308 308 309 309 310 311 311 312 312 312 312 311 311 310 308 308 308 308 308 306 303 302 301 299 299 298 297 298 300 301 302 306 309 308 307 308 309 310 310 311 313 312 312 313
306 308 311 312 313 314 313 312 311 311 311 310 309 308 307 308 309 308 307 306 307 308 308 309 309 309 310 311 311 311 311 312 313 312 311 311 312 310 307 304 302 300 298 297 295 295 296 297 297 299 303 305 304 304 305 306 305 305 309 311 311 310 311
306 309 310 311 312 313 312 311 311 311 311 310 309 307 306 306 306 306 305 305 306 306 307 308 309 310 311 312 312 313 314 314 314 313 312 312 312 308 305 302 299 296 295 294 292 292 294 294 294 296 299 300 300 300 302 304 303 302 306 308 307 307 307
307 308 309 310 311 311 311 311 310 310 310 310 309 308 306 306 306 306 306 307 307 308 309 310 311 312 312 313 313 314 314 314 313 311 310 310 308 304 301 298 295 292 292 291 290 290 291 291 291 294 295 295 298 300 299 301 301 302 304 305 304 304 305
306 307 308 309 310 311 310 309 309 309 309 309 309 309 309 308 308 308 307 307 309 310 311 311 312 313 313 313 313 313 313 312 311 309 306 305 303 300 296 293 291 290 289 289 289 289 289 288 290 293 293 293 296 298 297 298 299 299 300 301 299 300 302
306 307 308 309 309 309 309 308 308 309 309 309 308 307 306 305 305 305 305 306 307 309 310 311 312 312 312 312 312 312 311 310 308 306 302 300 298 295 293 290 288 288 288 287 287 288 286 285 288 292 291 291 294 296 296 297 297 297 299 298 295 295 297
305 306 307 307 307 307 307 307 308 309 309 309 307 305 302 301 302 302 303 305 306 308 309 310 310 310 310 310 310 310 310 309 307 304 301 299 297 294 292 291 290 288 287 287 286 286 286 286 287 290 291 292 294 294 294 295 297 299 299 295 293 294 296
305 306 306 306 305 305 307 308 309 310 310 308 306 305 302 301 302 302 303 304 306 307 309 309 309 309 309 310 310 310 310 308 306 303 301 299 297 295 294 294 293 292 291 290 288 286 288 289 288 289 293 296 296 294 295 298 300 301 299 295 295 294 294
304 305 305 306 306 306 308 310 311 311 311 309 308 306 304 303 303 302 302 304 307 308 309 309 309 309 309 309 309 309 308 307 305 303 301 300 299 298 297 296 297 297 296 296 294 292 293 295 296 297 300 303 303 301 302 302 301 299 297 295 294 293 291
304 305 306 306 307 307 309 312 312 311 312 311 309 307 305 304 303 303 303 306 308 309 309 309 309 309 308 308 308 308 307 306 305 304 303 302 302 301 300 299 300 300 299 298 297 295 295 296 297 299 300 300 301 300 300 301 298 295 293 291 290 288 287
304 306 307 307 308 308 309 311 313 312 312 312 311 308 306 304 303 303 305 307 309 309 309 309 309 309 308 308 308 309 308 307 307 306 305 304 303 302 300 300 301 301 300 299 297 293 291 289 289 290 288 286 285 284 284 286 286 286 286 285 283 282 283
304 305 306 307 309 310 310 312 314 313 312 312 310 307 304 304 304 305 307 308 309 309 308 308 309 309 308 309 309 310 310 311 309 305 303 301 299 298 298 301 304 304 302 302 301 298 297 295 294 294 291 289 287 284 280 278 278 281 283 282 280 280 283
304 305 307 308 309 310 310 312 313 312 311 310 308 306 305 305 306 307 308 309 309 309 309 310 311 311 310 310 311 312 312 312 309 304 302 300 298 298 301 304 304 302 301 301 299 297 295 294 293 292 291 291 291 290 287 282 281 284 285 284 283 283 284
305 306 309 310 309 309 309 309 310 310 309 308 307 307 306 306 308 309 309 309 309 309 310 311 312 312 311 311 312 312 312 312 311 308 305 300 297 297 301 302 299 297 296 296 296 295 295 295 294 292 290 289 288 287 285 283 282 284 284 285 285 284 282
305 306 308 309 307 307 308 308 309 309 309 309 308 308 308 308 309 310 309 309 309 310 311 312 313 313 313 313 313 313 313 314 312 307 302 298 296 297 298 298 296 295 296 297 298 300 300 300 300 299 296 294 291 289 287 284 282 283 283 283 283 283 282
306 306 307 307 306 306 308 309 310 310 310 311 310 310 311 310 310 309 308 308 309 310 311 313 314 314 315 314 313 313 314 313 310 305 302 301 300 299 298 297 296 298 300 302 303 303 303 304 305 304 302 299 296 295 293 289 286 284 284 283 283 283 282
306 306 306 307 306 308 311 312 312 312 313 313 313 313 312 311 309 309 308 308 309 311 313 314 314 314 314 312 312 313 314 313 310 308 307 306 305 302 301 300 300 303 305 306 307 306 306 308 309 308 306 304 301 300 297 293 289 286 283 283 282 281 280
308 307 307 308 308 310 313 313 313 314 315 315 315 314 312 310 309 309 309 309 310 312 313 314 313 312 311 311 313 315 314 312 310 310 310 310 310 309 308 308 309 311 310 309 309 309 309 309 310 309 307 306 304 301 297 293 289 285 281 279 277 276 276
308 309 308 309 311 312 314 314 314 315 317 317 315 312 310 309 309 310 310 310 310 311 311 310 309 308 309 312 313 313 311 310 311 311 312 315 317 317 317 316 315 314 312 310 310 310 309 309 310 310 307 305 303 299 295 293 290 287 285 284 282 282 281
309 310 310 311 313 313 314 314 314 316 317 316 313 311 310 309 309 310 309 308 307 307 306 306 306 308 310 312 312 310 309 310 313 315 318 322 322 321 319 317 315 314 313 312 312 311 309 309 310 309 307 305 302 298 295 295 295 294 293 293 292 291 289
310 311 312 313 314 314 314 314 314 316 317 314 312 311 310 309 309 309 307 306 305 305 305 306 308 309 310 310 309 309 310 312 316 320 324 326 324 322 319 317 316 314 313 311 311 309 307 307 308 307 306 305 303 300 299 298 298 298 298 297 296 293 291
309 311 314 315 314 315 314 313 315 318 317 314 312 311 310 309 308 307 306 305 305 306 306 307 308 308 309 309 309 311 312 315 318 322 324 325 325 322 319 317 313 310 309 309 308 306 306 306 305 304 304 304 302 300 300 300 299 299 298 297 295 292 291
310 313 316 315 314 316 315 314 317 319 316 313 311 310 308 308 306 305 305 305 306 306 306 306 306 307 309 311 311 312 314 316 319 321 323 325 324 321 318 316 312 310 311 311 308 306 306 306 304 303 303 302 300 300 300 300 300 299 299 297 294 291 291
311 315 316 315 315 315 315 316 318 318 315 312 311 308 306 305 303 302 302 304 305 304 302 303 306 308 310 311 311 311 313 315 317 319 322 324 322 319 318 316 313 313 313 312 308 307 306 305 303 302 301 300 299 299 300 300 299 298 298 297 294 292 292
313 315 316 316 316 317 317 317 318 316 313 311 309 306 304 302 300 300 301 303 302 300 301 303 306 308 310 309 308 309 311 313 315 318 321 321 320 319 317 315 315 315 313 310 308 307 306 304 302 301 300 299 298 299 299 298 297 296 296 296 294 293 293
315 316 316 317 318 319 319 317 315 312 310 309 307 304 302 300 299 298 299 299 297 298 301 304 305 306 307 306 305 307 310 312 315 317 318 317 317 317 317 315 315 316 312 310 309 307 305 304 303 301 300 299 298 297 296 295 294 294 294 294 293 292 292
316 317 318 320 321 320 317 314 312 309 308 307 305 303 301 298 296 296 296 296 295 297 301 304 303 304 305 304 305 307 310 312 314 315 314 314 314 315 316 315 315 313 311 309 308 306 305 305 304 302 300 299 297 296 294 293 292 293 293 292 291 291 292
317 320 322 322 321 319 315 312 309 307 307 306 305 303 301 298 297 298 298 297 297 298 301 303 302 302 303 304 305 308 309 311 312 312 311 311 312 313 314 314 313 311 310 309 308 306 304 304 304 301 299 296 295 294 292 290 290 290 290 289 289 290 291
321 324 325 322 321 318 314 309 307 306 308 309 310 309 307 304 304 306 304 301 300 301 303 303 302 302 303 305 306 307 308 309 310 310 309 310 310 311 312 312 311 310 309 308 307 305 304 303 301 300 297 295 293 291 290 289 289 288 288 288 288 289 290
324 326 325 323 322 320 315 312 310 311 313 315 316 315 311 308 308 310 309 307 305 305 305 304 303 303 304 305 305 306 306 307 307 308 308 308 309 310 310 310 310 309 307 306 305 304 303 301 299 298 297 294 291 289 288 288 288 288 287 287 287 288 289